星链-5289 (STARLINK-5289 )

导读

STARLINK-5289是美国太空探索技术公司(SpaceX)星链互联网卫星星座中的一颗卫星,于2023年1月19日发射入轨。星链项目旨在通过近地轨道卫星群提供全球高速互联网接入服务,这颗卫星加入星座后,进一步拓展了星链系统的全球覆盖能力,助力提升网络服务的稳定性与容量。

Basic Information
目录编号:
55278
目录名称:
STARLINK-5289
国际标识:
2023-010K
轨道中心:
EARTH
卫星名称:
星链-5289
卫星全名:
星链-5289 (STARLINK-5289 )
卫星状态:
在轨 (已飞行1243 天)
发射日期:
2023-01-19 UTC
国别 :
美国 (US)
星等 :
--
Orbit Information
数据来源 国际轨道数据 AOE轨道数据
星历时间 2026-06-15T01:34:11+0800
13小时前
查看轨道信息
2026-06-09T06:00:00+0800
6天前
查看轨道信息
半长轴 6950.192km 6950.203km
偏心率 0.0003961 0.0003273
轨道倾角 69.999° 69.999°
近地点辐角 265.656° 273.384°
升交点赤经 159.707° 174.369°
平近点角 94.415° 47.385°
近地点 569.302km 569.791km
远地点 574.808km 574.341km
周期 96.107分钟 96.107分钟
每日圈数 14.983305 14.98327
Detailed Information
固有亮度:
5
最大亮度:
2.5
卫星平台:
Starlink v1.5
覆盖范围:
全球
运营商:
太空探索技术公司
运营商所在国:
美国
制造商(研发单位):
太空探索技术公司
制造商所在国:
美国
使用方式:
暂无
Satellite Introduction
星链(Starlink)计划是由太空探索技术公司(SpaceX)提出的一个巨型低轨卫星互联网星座项目,计划在2019年至2024年间在太空搭建由约1.2万颗卫星组成的“星链”网络,其中1584颗将部署在地球上空550千米处的近地轨道,并从2020年开始工作。该卫星仍在工作。
2D Orbit Map
3D Orbit Map
Orbit Altitude Analysis Chart
Orbit Inclination Analysis Chart
Orbit Comprehensive Analysis Chart
View Comprehensive Chart